Tracking 20232 objects as of 22-Jan-2020
HD Live streaming from Space Station
objects crossing your sky now

SL-14 DEB

Track SL-14 DEB now!
10-day predictions


NORAD ID: 19232
Int'l Code: 1978-100AB
Perigee: 1,681.4 km
Apogee: 1,992.9 km
Inclination: 82.3 °
Period: 123.3 minutes
Semi major axis: 8208 km
RCS: 0.0463 m2 (small)
Launch date: October 26, 1978
Source: Commonwealth of Independent States (former USSR) (CIS)
Launch site: PLESETSK MISSILE AND SPACE COMPLEX (PKMTR)

Note: This is SATELLITE DEBRIS
aabbcc
Your satellite tracking list
Your tracking list is empty




NASA's NSSDC Master Catalog

Two Line Element Set (TLE):
1 19232U 78100AB  20022.01215396  .00000024  00000-0  26713-3 0  9994
2 19232  82.3334 112.4860 0189791  42.9719 129.5098 11.67441454350314
Source of the keplerian elements: AFSPC